Coolangatta Observation History
Time Wind Speed Temp Pressure Rel. Hum Rain
05/10:00pm SSW 6-8 kts 15.1°c 1026.3 hPa 76% 0.0mm
05/09:30pm SW 7-9 kts 15.3°c 1026.4 hPa 78% 0.0mm
05/09:00pm SW 7-9 kts 15.1°c 1026.4 hPa 78% 0.0mm
05/08:30pm SW 7-9 kts 15.2°c 1026.4 hPa 77% 0.0mm
05/08:00pm SW 7-8 kts 15.3°c 1026.5 hPa 77% 0.0mm
05/07:30pm SSW 6-8 kts 15.2°c 1026.4 hPa 76% 0.0mm
05/07:00pm SSW 7-9 kts 15.7°c 1026.3 hPa 74% 0.0mm
05/06:30pm SSW 7-10 kts 16.2°c 1025.9 hPa 73% 0.0mm
05/06:00pm S 6-8 kts 16.2°c 1025.6 hPa 74% 0.0mm
05/05:30pm S 9-13 kts 17.0°c 1025.3 hPa 72% 0.0mm
05/05:00pm SSE 10-14 kts 17.6°c 1025.1 hPa 71% 0.0mm
05/04:30pm SSE 10-14 kts 18.4°c 1024.9 hPa 68% 0.0mm
05/04:00pm SSE 10-14 kts 19.3°c 1024.8 hPa 64% 0.0mm
05/03:30pm SSE 11-16 kts 20.4°c 1024.8 hPa 54% 0.0mm
05/03:00pm SSE 10-15 kts 20.9°c 1024.9 hPa 54% 0.0mm
05/02:30pm SSE 11-14 kts 20.8°c 1025.1 hPa 54% 0.0mm
05/02:00pm SSE 10-15 kts 21.0°c 1025.2 hPa 53% 0.0mm
05/01:30pm S 12-17 kts 20.9°c 1025.5 hPa 55% 0.0mm
05/01:00pm S 10-15 kts 20.7°c 1025.8 hPa 56% 0.0mm
05/12:30pm S 10-14 kts 19.1°c 1026.6 hPa 60% 0.0mm
05/12:00pm SSW 11-15 kts 19.4°c 1027.2 hPa 60% 0.0mm
05/11:30am SSW 9-14 kts 19.4°c 1027.8 hPa 62% 0.0mm
05/11:00am SSW 9-12 kts 17.6°c 1028.4 hPa 66% 0.0mm
05/10:30am S 9-16 kts 17.2°c 1028.6 hPa 71% 0.0mm
05/10:00am S 9-13 kts 17.6°c 1028.7 hPa 68% 0.0mm
05/09:30am S 7-13 kts 17.4°c 1028.8 hPa 66% 0.0mm
05/09:00am SSW 11-17 kts 17.1°c 1028.5 hPa 64% 0.0mm
05/08:30am SSW 8-13 kts 16.4°c 1028.2 hPa 67% 0.0mm
05/08:00am S 7-10 kts 15.9°c 1028.1 hPa 69% 0.0mm
05/07:30am SSW 9-13 kts 15.5°c 1027.9 hPa 71% 0.0mm
05/07:00am SSW 7-10 kts 15.3°c 1027.4 hPa 71% 0.0mm
05/06:30am SSW 9-12 kts 15.1°c 1027.4 hPa 72% 0.0mm
05/06:00am SSW 9-13 kts 14.9°c 1027.3 hPa 74% 0.0mm
05/05:30am SSW 6-9 kts 14.7°c 1026.8 hPa 72% 0.0mm
05/05:00am SSW 7-11 kts 14.9°c 1026.7 hPa 72% 0.0mm
05/04:30am SSW 8-12 kts 14.6°c 1026.6 hPa 73% 0.0mm
05/04:00am SW 9-12 kts 15.0°c 1026.7 hPa 71% 0.0mm
05/03:30am SSW 10-14 kts 15.0°c 1026.5 hPa 73% 0.0mm
05/03:00am SSW 9-13 kts 14.8°c 1026.8 hPa 71% 0.0mm
05/02:30am SSW 8-14 kts 15.1°c 1027.1 hPa 70% 0.0mm
05/02:00am SSW 8-13 kts 15.4°c 1027.5 hPa 69% 0.0mm
05/01:30am SSW 8-11 kts 15.6°c 1027.7 hPa 69% 0.0mm
05/01:00am SSW 9-15 kts 15.6°c 1027.8 hPa 70% 0.0mm
05/12:30am SSW 10-15 kts 15.8°c 1027.7 hPa 67% 0.0mm
05/12:00am SSW 7-13 kts 16.0°c 1028.0 hPa 64% 0.0mm
Time Wind Speed Temp Pressure Rel. Hum Rain
04/11:30pm SSW 8-12 kts 16.1°c 1028.1 hPa 65% 0.0mm
04/11:00pm SSW 9-12 kts 16.4°c 1028.1 hPa 66% 0.0mm
04/10:30pm SSW 9-13 kts 16.4°c 1028.3 hPa 65% 0.0mm
04/10:00pm SSW 9-13 kts 16.3°c 1028.4 hPa 64% 0.0mm
04/09:30pm SSW 7-11 kts 16.0°c 1028.5 hPa 65% 0.0mm
04/09:00pm SSW 7-11 kts 16.3°c 1028.3 hPa 64% 0.0mm
04/08:30pm S 7-10 kts 16.6°c 1028.7 hPa 64% 0.0mm
04/08:00pm SSW 6-8 kts 16.1°c 1028.6 hPa 69% 0.0mm
04/07:30pm SSW 4-6 kts 15.8°c 1028.5 hPa 72% 0.0mm
04/07:00pm S 8-11 kts 16.2°c 1028.4 hPa 71% 0.0mm
04/06:30pm SSE 7-9 kts 16.4°c 1028.5 hPa 70% 0.0mm
04/06:00pm S 9-13 kts 16.2°c 1028.0 hPa 69% 0.0mm
04/05:30pm SSW 9-15 kts 16.2°c 1027.6 hPa 69% 0.0mm
04/05:00pm S 7-10 kts 16.5°c 1027.3 hPa 69% 0.0mm
04/04:30pm S 9-14 kts 17.0°c 1027.1 hPa 66% 0.0mm
04/04:00pm SSW 11-17 kts 18.2°c 1026.9 hPa 60% 0.0mm
04/03:30pm S 9-14 kts 18.6°c 1026.8 hPa 59% 0.0mm
04/03:00pm S 13-21 kts 18.4°c 1026.7 hPa 60% 0.0mm
04/02:30pm S 13-18 kts 19.2°c 1026.8 hPa 56% 0.0mm
04/02:00pm S 14-21 kts 19.5°c 1026.8 hPa 54% 0.0mm
04/01:30pm SSW 10-16 kts 19.6°c 1026.9 hPa 55% 0.0mm
04/01:16pm S 15-26 kts 19.2°c 1027.0 hPa 57% 0.0mm
04/01:00pm SSW 10-17 kts 19.4°c 1027.2 hPa 56% 0.0mm
04/12:30pm SSW 11-17 kts 18.7°c 1027.3 hPa 58% 0.0mm
04/12:00pm SSW 9-15 kts 18.1°c 1027.6 hPa 60% 0.0mm
04/11:30am SSW 12-17 kts 17.8°c 1027.8 hPa 57% 0.0mm
04/11:00am SSW 10-16 kts 17.6°c 1028.1 hPa 56% 0.0mm
04/10:30am SSW 12-17 kts 17.2°c 1028.4 hPa 56% 0.0mm
04/10:00am SSW 12-18 kts 17.8°c 1028.4 hPa 55% 0.0mm
04/09:30am SSW 11-18 kts 16.7°c 1028.6 hPa 61% 0.0mm
04/09:11am S 15-25 kts 16.2°c 1028.5 hPa 59% 0.0mm
04/09:00am SSW 13-19 kts 16.4°c 1028.3 hPa 60% 0.0mm
04/08:30am SSW 12-21 kts 16.4°c 1028.0 hPa 60% 0.0mm
04/08:00am S 12-19 kts 15.8°c 1027.7 hPa 58% 0.0mm
04/07:30am SSW 10-14 kts 15.1°c 1026.9 hPa 57% 0.0mm
04/07:00am SSW 12-19 kts 15.0°c 1026.5 hPa 56% 0.0mm
04/06:30am SSW 12-18 kts 15.1°c 1026.3 hPa 55% 0.0mm
04/06:00am SSW 10-15 kts 14.5°c 1026.1 hPa 56% 0.0mm
04/05:30am SSW 8-12 kts 14.6°c 1025.7 hPa 54% 0.0mm
04/05:00am SW 9-15 kts 14.6°c 1025.4 hPa 53% 0.0mm
04/04:30am SW 9-13 kts 14.0°c 1025.1 hPa 54% 0.0mm
04/04:00am SW 7-11 kts 13.6°c 1025.1 hPa 55% 0.0mm
04/03:30am SW 8-11 kts 13.3°c 1025.1 hPa 56% 0.0mm
04/03:00am SW 7-10 kts 13.8°c 1025.1 hPa 54% 0.0mm
04/02:30am SSW 9-13 kts 14.5°c 1025.3 hPa 56% 0.0mm
04/02:00am SSW 7-10 kts 14.2°c 1025.4 hPa 61% 0.0mm
04/01:30am SW 7-11 kts 14.7°c 1025.2 hPa 61% 0.0mm
04/01:00am SW 7-10 kts 14.8°c 1025.3 hPa 61% 0.0mm
04/12:30am SW 7-11 kts 15.0°c 1025.4 hPa 60% 0.0mm
04/12:00am SW 8-11 kts 15.0°c 1025.3 hPa 60% 0.0mm
Time Wind Speed Temp Pressure Rel. Hum Rain
03/11:30pm SW 7-12 kts 15.3°c 1025.2 hPa 60% 0.0mm
03/11:00pm SW 7-10 kts 14.3°c 1025.2 hPa 67% 0.0mm
03/10:30pm SW 5-8 kts 13.7°c 1025.3 hPa 70% 0.0mm
03/10:00pm WSW 5-7 kts 13.3°c 1025.3 hPa 74% 0.0mm
03/09:30pm WSW 5-7 kts 13.3°c 1025.2 hPa 72% 0.0mm
03/09:00pm WSW 4-5 kts 14.3°c 1025.0 hPa 68% 0.0mm
03/08:30pm WSW 4-5 kts 14.2°c 1025.0 hPa 69% 0.0mm
03/08:00pm WSW 4-6 kts 14.4°c 1024.7 hPa 69% 0.0mm
03/07:30pm WSW 5-8 kts 14.0°c 1024.4 hPa 66% 0.0mm
03/07:00pm SW 7-10 kts 14.7°c 1024.0 hPa 61% 0.0mm
03/06:30pm SSW 5-9 kts 15.2°c 1023.5 hPa 57% 0.0mm
03/06:00pm S 6-10 kts 15.3°c 1022.7 hPa 55% 0.0mm
03/05:30pm S 7-11 kts 16.0°c 1022.2 hPa 53% 0.0mm
03/05:00pm SSE 8-13 kts 16.6°c 1021.6 hPa 55% 0.0mm
03/04:30pm SE 9-13 kts 17.7°c 1021.1 hPa 51% 0.0mm
03/04:00pm SE 8-13 kts 18.8°c 1020.7 hPa 46% 0.0mm
03/03:30pm ESE 7-10 kts 19.3°c 1020.2 hPa 43% 0.0mm
03/03:00pm ESE 7-10 kts 19.2°c 1019.9 hPa 41% 0.0mm
03/02:30pm ESE 7-10 kts 19.5°c 1019.9 hPa 41% 0.0mm
03/02:00pm NE 9-11 kts 19.7°c 1019.7 hPa 39% 0.0mm
03/01:30pm E 7-11 kts 20.0°c 1019.6 hPa 36% 0.0mm
03/01:00pm E 7-11 kts 19.5°c 1019.7 hPa 34% 0.0mm
03/12:30pm E 8-10 kts 19.6°c 1020.0 hPa 33% 0.0mm
03/12:00pm ENE 7-9 kts 19.5°c 1020.4 hPa 35% 0.0mm
03/11:30am SSE 4-7 kts 19.4°c 1020.9 hPa 29% 0.0mm
03/11:00am SSE 5-8 kts 19.6°c 1021.2 hPa 29% 0.0mm
03/10:30am SSW 1-5 kts 19.3°c 1021.3 hPa 30% 0.0mm
03/10:00am SW 2-4 kts 18.3°c 1021.5 hPa 32% 0.0mm
03/09:30am NW 4-7 kts 17.6°c 1021.3 hPa 34% 0.0mm
03/09:00am W 1-6 kts 16.2°c 1021.2 hPa 47% 0.0mm
03/08:30am CALM 0 kts 12.9°c 1021.1 hPa 60% 0.0mm
03/08:00am WSW 3-4 kts 10.3°c 1020.9 hPa 69% 0.0mm
03/07:30am WSW 1-4 kts 8.4°c 1020.9 hPa 79% 0.0mm
03/07:00am SW 1-4 kts 6.7°c 1020.5 hPa 86% 0.0mm
03/06:30am SW 4-5 kts 5.3°c 1020.0 hPa 87% 0.0mm
03/06:00am CALM 0 kts 5.5°c 1019.7 hPa 84% 0.0mm
03/05:30am SW 3-5 kts 6.2°c 1019.4 hPa 86% 0.0mm
03/05:00am WSW 4-6 kts 6.4°c 1019.0 hPa 83% 0.0mm
03/04:30am WSW 4-5 kts 6.1°c 1018.8 hPa 86% 0.0mm
03/04:00am WSW 2-5 kts 5.9°c 1018.7 hPa 82% 0.0mm
03/03:30am SW 1-3 kts 6.3°c 1018.4 hPa 84% 0.0mm
03/03:00am WSW 5-8 kts 6.5°c 1018.4 hPa 84% 0.0mm
03/02:30am WSW 4-6 kts 5.6°c 1018.5 hPa 88% 0.0mm
03/02:00am SW 1-3 kts 4.9°c 1018.5 hPa 83% 0.0mm
03/01:30am WSW 4-6 kts 6.0°c 1018.7 hPa 86% 0.0mm
03/01:00am SW 2-4 kts 6.6°c 1018.6 hPa 82% 0.0mm
03/12:30am WSW 8-10 kts 7.5°c 1018.9 hPa 79% 0.0mm
03/12:00am WSW 4-5 kts 7.5°c 1019.2 hPa 76% 0.0mm